User: anonymous   Login
Location: Unspecified
(0.0000°N, 0.0000°E)
Time: 21:58:37
(UTC+00:00)
Language:

TISAT 1 - Orbit

View from above orbital plane
View from above orbital plane
View from above satellite
View from above satellite

Ground track
Ground track

The orbit data is extracted from the following two-line orbital elements,

1 36799U 10035E   17082.87645859 +.00000778 +00000-0 +86194-4 0  9997
2 36799 098.0497 203.9436 0011291 243.8823 116.1233 14.90276181362876
Epoch (UTC): 23 March 2017 21:02:06
Eccentricity: 0.0011291
inclination: 98.0497°
perigee height: 589 km
apogee height: 605 km
right ascension of ascending node: 203.9436°
argument of perigee: 243.8823°
revolutions per day: 14.90276181
mean anomaly at epoch: 116.1233°
orbit number at epoch: 36287

The dashed part of the orbit path shows where the satellite is in the earth's shadow,  

DLR